Weather History for KGGG - March, 2014

Change the Weather History Date:

Sunday, March 30, 2014

  Actual Average Record
Temperature  
Mean Temperature 58 °F 61 °F  
Max Temperature 75 °F 72 °F 93 °F (1946)
Min Temperature 41 °F 49 °F 29 °F (2003)
Degree Days  
Heating Degree Days 7 6  
Month to date heating degree days 348 250  
Since 1 July heating degree days 2472 2154  
Cooling Degree Days 0 1  
Month to date cooling degree days 9 30  
Year to date cooling degree days 14 42  
Growing Degree Days 8 (Base 50)    
Moisture  
Dew Point 42 °F    
Average Humidity 58    
Maximum Humidity 89    
Minimum Humidity 27    
Precipitation  
Precipitation 0.00 in 0.14 in 4.00 in (2008)
Month to date precipitation 3.75 4.22  
Year to date precipitation 6.73 11.58  
Snow  
Snow 0.00 in - - ()
Month to date snowfall 0.1  
Since 1 July snowfall 0.3  
Snow Depth 0.00 in    
Sea Level Pressure  
Sea Level Pressure 30.16 in    
Wind  
Wind Speed 7 mph (SSE)    
Max Wind Speed 17 mph    
Max Gust Speed 22 mph    
Visibility 10 miles    
Events      
T = Trace of Precipitation, MM = Missing Value Source: NWS Daily Summary

Daily Weather History Graph

Daily Weather History Graph

Search for Another Location

Airport or City:

Trip Planner

Search our weather history database for the weather conditions in past years. The results will help you decide how hot, cold, wet, or windy it might be!

Date:

Astronomy

Mar. 30, 2014 Rise Set
Actual Time 7:09 AM CDT 7:37 PM CDT
Civil Twilight 6:44 AM CDT 8:02 PM CDT
Nautical Twilight 6:16 AM CDT 8:31 PM CDT
Astronomical Twilight 5:46 AM CDT 9:00 PM CDT
Moon 6:55 AM CDT (3/30) 7:49 PM CDT (3/30)
Length of Visible Light 13h 17m
Length of Day
12h 27m
Waning Crescent, 0% of the Moon is Illuminated
Mar 30
Waning Crescent
Mar 30
New
Apr 7
First Quarter
Apr 15
Full
Apr 22
Last Quarter

Hourly Weather History & Observations

Time (CDT) Temp. Dew Point Humidity Pressure Visibility Wind Dir Wind Speed Gust Speed Precip Events Conditions
12:53 AM 48.9 °F 41.0 °F 74% 30.22 in 10.0 mi Calm Calm - N/A   Clear
1:53 AM 46.9 °F 39.0 °F 74% 30.22 in 10.0 mi Calm Calm - N/A   Clear
2:53 AM 45.0 °F 39.0 °F 80% 30.21 in 10.0 mi Calm Calm - N/A   Clear
3:53 AM 44.1 °F 39.0 °F 82% 30.21 in 10.0 mi Calm Calm - N/A   Clear
4:53 AM 43.0 °F 39.0 °F 86% 30.21 in 10.0 mi Calm Calm - N/A   Clear
5:53 AM 43.0 °F 39.0 °F 86% 30.21 in 10.0 mi Calm Calm - N/A   Clear
6:53 AM 42.1 °F 39.0 °F 89% 30.22 in 10.0 mi Calm Calm - N/A   Clear
7:53 AM 44.1 °F 41.0 °F 89% 30.24 in 10.0 mi Calm Calm - N/A   Clear
8:53 AM 54.0 °F 46.0 °F 75% 30.25 in 10.0 mi SE 8.1 mph - N/A   Clear
9:53 AM 60.1 °F 45.0 °F 57% 30.25 in 10.0 mi ESE 9.2 mph - N/A   Clear
10:53 AM 64.9 °F 45.0 °F 48% 30.25 in 10.0 mi SE 11.5 mph - N/A   Clear
11:53 AM 68.0 °F 41.0 °F 37% 30.24 in 10.0 mi South 10.4 mph - N/A   Clear
12:53 PM 70.0 °F 42.1 °F 36% 30.21 in 10.0 mi South 9.2 mph - N/A   Clear
1:53 PM 71.1 °F 43.0 °F 36% 30.18 in 10.0 mi Variable 3.5 mph - N/A   Clear
2:53 PM 73.0 °F 43.0 °F 34% 30.14 in 10.0 mi South 10.4 mph - N/A   Clear
3:53 PM 73.9 °F 42.1 °F 32% 30.11 in 10.0 mi South 10.4 mph - N/A   Clear
4:53 PM 75.0 °F 39.9 °F 28% 30.08 in 10.0 mi SSE 12.7 mph - N/A   Clear
5:53 PM 73.9 °F 39.9 °F 29% 30.05 in 10.0 mi South 13.8 mph - N/A   Clear
6:53 PM 71.1 °F 42.1 °F 35% 30.04 in 10.0 mi SSE 10.4 mph - N/A   Clear
7:53 PM 64.0 °F 43.0 °F 46% 30.05 in 10.0 mi SE 4.6 mph - N/A   Clear
8:53 PM 61.0 °F 44.1 °F 54% 30.06 in 10.0 mi SSE 8.1 mph - N/A   Clear
9:53 PM 61.0 °F 43.0 °F 52% 30.05 in 10.0 mi SSE 8.1 mph - N/A   Clear
10:53 PM 62.1 °F 42.1 °F 48% 30.04 in 10.0 mi SSE 12.7 mph - N/A   Clear
11:53 PM 61.0 °F 43.0 °F 52% 30.04 in 10.0 mi South 10.4 mph - N/A   Clear